Regional Weather Roundup
Issued by NWS Wakefield, VA

Home | Current Version | Previous Version | Graphics & Text | Print | Product List | Glossary On
Versions: 1 2 3 4 5 6 7 8 9 10 11 12 13 14 15 16 17 18 19 20 21 22 23 24 25 26 27 28 29 30 31 32 33 34 35 36 37 38 39 40 41 42 43 44 45 46 47 48 49 50
000
ASUS41 KAKQ 291413
RWRAKQ

REGIONAL WEATHER ROUNDUP
NATIONAL WEATHER SERVICE WAKEFIELD VA
1000 AM EDT SAT AUG 29 2015

Note: "fair" indicates few or no clouds below 12,000 feet with no
significant weather and/or obstructions to visibility. * = Denotes
station may not report precipitation (e.g., rain,snow,etc.),
thunder or fog.

VAZ042-051-052>054-056-291500-
NORTHERN VIRGINIA

CITY           SKY/WX    TMP DP  RH WIND       PRES   REMARKS
WASH NATIONAL  PTSUNNY   78  64  61 S10       30.22S
DULLES         MOSUNNY   75  62  64 S9        30.21S
FORT BELVOIR   SUNNY     76  62  62 S6        30.22S
QUANTICO       MOSUNNY   76  61  59 SW8       30.23S
FREDERICKSBRG* SUNNY     79  62  56 S7        30.22S
STAFFORD*      SUNNY     76  61  58 S7        30.26S
WARRENTON      SUNNY     77  65  67 S7        30.22R
CULPEPER*      MOSUNNY   73  63  71 S5        30.22S
MANASSAS*      MOSUNNY   73  64  73 MISG      30.22S
LEESBURG*      SUNNY     73  66  78 SW3       30.23R
WINCHESTER     SUNNY     77  61  57 SW9       30.21R
FRONT ROYAL*   FAIR      77  61  57 S5G16     30.20S
LURAY*         FAIR      73  59  60 SW6       30.22S
$$

VAZ048-049-060>072-079>083-291500-
CENTRAL AND SOUTH CENTRAL VIRGINIA

CITY           SKY/WX    TMP DP  RH WIND       PRES   REMARKS
RICHMOND       MOSUNNY   77  62  59 SW3       30.24S
CHESTERFIELD*  FAIR      75  55  50 SW6       30.26S
PETERSBURG*    PTSUNNY   77  68  74 CALM      30.26R
HANOVER        SUNNY     76  62  62 S6        30.26S
TAPPAHANNOCK*  SUNNY     76  61  60 CALM      30.25S
QUINTON*       FAIR      74  64  71 S3        30.24S
CHARLOTTSVILLE MOSUNNY   73  64  73 S6        30.22F
GORDONSVILLE*  FAIR      75  64  67 S10       30.22S
ORANGE*        MOSUNNY   77  63  61 S9        30.24S
LOUISA*        MOSUNNY   75  61  60 S7        30.23S
BUMPASS*       FAIR      75  60  60 MISG      30.24S
FARMVILLE*     NOT AVBL
CREWE*         FAIR     N/A N/A N/A CALM      30.25S
FORT PICKETT*  FAIR      73  63  71 S5        30.25S
CHASE CITY*    FAIR      78  63  59 S3        30.25S
CLARKSVILLE*   FAIR      73  61  64 CALM      30.25S
SOUTH HILL*    SUNNY     74  63  69 CALM      30.31R
LAWRENCEVILLE* FAIR      75  64  69 CALM      30.25S
EMPORIA*       SUNNY     73  63  68 CALM      30.26S
$$

VAZ088>098-291500-
SOUTHEAST VIRGINIA

CITY           SKY/WX    TMP DP  RH WIND       PRES   REMARKS
NORFOLK        SUNNY     79  58  48 NE8       30.23R
VIRGINIA BEACH MOSUNNY   82  60  47 NE9       30.22R
NORFOLK NAVAL  MOSUNNY   79  61  53 E8        30.25R
WEST POINT*    SUNNY     78  62  58 CALM      30.26S
SALUDA*        FAIR      75  66  74 CALM      30.24S
NEWPORT NEWS   SUNNY     80  62  54 E6        30.24R
LANGLEY AFB    SUNNY     79  62  56 NE8       30.23R
FORT EUSTIS    SUNNY     79  59  50 VRB1      30.22S
WILLIAMSBURG*  SUNNY     79  68  69 CALM      30.25R
HR EXEC AP*      N/A     81  64  57 NE6       30.25S
FRANKLIN*      SUNNY     77  62  59 E5        30.24S
WAKEFIELD      MOSUNNY   76  62  62 W3        30.25R
$$

VAZ020-022-025-037-045-291500-
WEST CENTRAL AND SOUTHWEST VIRGINIA

CITY           SKY/WX    TMP DP  RH WIND       PRES   REMARKS
STAUNTON*      SUNNY     77  60  54 S8        30.26S
WAYNESBORO*    FAIR      75  61  60 S3        30.25S
HOT SPRINGS VA SUNNY     67  58  70 W8        30.33S
LYNCHBURG      SUNNY     73  60  63 SW5       30.26S
DANVILLE       MOSUNNY   74  62  66 SW3       30.25S
SOUTH BOSTON*  FAIR      74  62  67 CALM      30.25S
MARTINSVILLE   MOSUNNY   73  63  70 CALM      30.28R
ROANOKE        PTSUNNY   70  62  76 CALM      30.27F
BLACKSBURG     CLOUDY    69  62  78 CALM      30.32S
DUBLIN*        CLOUDY    69  64  85 CALM      30.31S
MARION*        MOSUNNY   68  61  78 CALM      30.33S
HILLSVILLE*    CLOUDY    65  60  81 SW6       30.31R
RICHLANDS*     FAIR      70  32  24 CALM      30.31R
WISE*          PTSUNNY   72  57  60 S3        30.31S
ABINGDON*      MOSUNNY   73  60  63 E5        30.28S
$$

MDZ021>025-VAZ099-100-291500-
SOUTHERN MARYLAND AND THE DELMARVA PENINSULA

CITY           SKY/WX    TMP DP  RH WIND       PRES   REMARKS
PATUXENT RIVER PTSUNNY   76  64  66 SW6       30.23S
BAY BRIDGE APT   N/A     75  59  57 SW5       30.22S
LEONARDTOWN    SUNNY     75  61  60 CALM      30.25R
DOVER          SUNNY     76  65  67 SW6       30.22S
GEORGETOWN     SUNNY     77  63  61 VRB5      30.24S
EASTON         SUNNY     77  66  69 SW7       30.26
CAMBRIDGE      SUNNY     77  63  61 SW5       30.23S
SALISBURY      PTSUNNY   76  62  62 S5        30.23S
OCEAN CITY     SUNNY     77  58  51 S3        30.24S
WALLOPS ISLAND SUNNY     78  60  53 CALM      30.25S
ACCOMACK*      SUNNY     75  30  19 E3        30.24S
$$

NCZ012>017-030>032-291500-
NORTH CENTRAL AND EASTERN NORTH CAROLINA

CITY           SKY/WX    TMP DP  RH WIND       PRES   REMARKS
ROANOKE RAPIDS FAIR      75  61  60 NE5       30.24S
RALEIGH        PTSUNNY   76  61  59 E5        30.24S
ELIZABETH CITY SUNNY     79  64  60 NE10      30.22R
AHOSKIE*       SUNNY     74  63  67 CALM      30.24R
EDENTON*       SUNNY     76  65  68 NE9       30.22R
CURRITUCK*     SUNNY     79  57  45 NE10      30.23R
KILL DEVIL HLS MOSUNNY   80  66  62 NE7       30.20R
MANTEO         MOSUNNY   79  68  70 NE12      30.21R
CAPE HATTERAS  PTSUNNY   81  72  74 NE12G18   30.16R
TARBORO*       FAIR      77  64  62 NE6       30.24R
GOLDSBORO      MOSUNNY   76  64  67 NE9       30.21R
WASHINGTON     SUNNY     76  66  71 NE8       30.21S
GREENVILLE     SUNNY     77  66  69 NE7       30.23R
NEW BERN       SUNNY     78  68  71 NE12      30.20S
WILMINGTON     PTSUNNY   77  69  76 NE12      30.17S
$$

VAZ048-291500-
ELSEWHERE

CITY           SKY/WX    TMP DP  RH WIND       PRES   REMARKS
HARRISBURG PA  PTSUNNY   72  60  66 SE3       30.20F
BALTIMORE      MOSUNNY   76  60  57 SW8       30.21S
ANNAPOLIS      SUNNY     76  60  57 SW6       30.21F
ANDREWS AFB    SUNNY     78  60  53 S13       30.22S
PHILADELPHIA   MOSUNNY   77  59  53 W7        30.23S
HENDERSON NC   PTSUNNY   75  57  53 CALM      30.25S
GREENSBORO     PTSUNNY   74  61  63 S6        30.25S
ROCKY MOUNT    SUNNY     78  62  57 VRB6      30.24R
$$

VAZ100-291500-
MARINE

STATION/POSITION TIME  TEMP    WIND        PRES    WAVE   SWELL
                       AIR SEA DIR/SP/G            HT/PER HT/PER
                 (UTC) (F)     (DEG/KT/KT) (MB)    (FT/S) (FT/S)
15NM E FENWICK I 1350   75 78  280/  2/  4 1024.1R   3/10   3/10
CHESAPEAKE LGHT  1300   76      60/ 11/ 12 1023.9R
CAPE HENRY BUOY  1328      78                N/A     3/12   2/12
CAPE CHARLES BUO 1326      78                N/A     3/11   3/11
OFFSHORE WE BUOY 1311      78                N/A     3/12   3/12
64NM E OF VA BCH 1350   76 78   50/ 12/ 14 1022.5R   4/10   3/10
44100 DUCK FRF   1324      77                N/A     4/10   2/11
44056 DUCK FRF   1311      78                N/A     4/11   2/11
DIAMOND SHLS NC  1350   78 82   50/ 14/ 16 1020.8R   5/10   3/10
CAPE LOOKOUT NC  1400   78      30/ 19/ 21 1020.8S
$$


USA.gov is the U.S. government's official web portal to all federal, state and local government web resources and services.